This demonstration page uses our WeatherBlox Daily Observations layout. Learn more.

Left ArrowRight Arrow

38.20091, -84.87328

Hourly Observations for August 18, 2016

Temp ( °F °C ) Dew Point ( °F °C ) Humidity (%) Winds ( mph kmh ) Pressure ( in mb ) Visibility ( mi km ) Precip ( " mm )
12:53 am 00:53 Cloudy with Mist and Fog 73 22.8 71 21.7 94 94 W 5 7 30.12 1020 6 10 0.00 0.00
1:53 am 01:53 Cloudy with Mist and Fog 73 22.8 70 21.1 90 90 WSW 5 7 30.13 1020 6 10 0.00 0.00
2:53 am 02:53 Cloudy with Mist and Fog 73 22.8 70 21.1 90 90 WSW 3 6 30.11 1020 6 10 0.00 0.00
3:18 am 03:18 Cloudy 73 22.8 70 21.1 90 90 SW 3 6 30.12 1020 7 11 0.00 0.00
3:45 am 03:45 Cloudy 73 22.8 70 21.1 90 90 SW 6 9 30.09 1019 7 11 0.00 0.00
3:53 am 03:53 Cloudy 73 22.8 70 21.1 90 90 SW 6 9 30.11 1020 7 11 0.00 0.00
4:43 am 04:43 Cloudy 73 22.8 70 21.1 90 90 Calm 30.09 1019 8 13 0.00 0.00
4:53 am 04:53 Cloudy 73 22.8 70 21.1 90 90 Calm 30.10 1019 8 13 0.00 0.00
5:53 am 05:53 Cloudy 74 23.3 70 21.1 88 88 Calm 30.11 1020 8 13 0.00 0.00
6:20 am 06:20 Cloudy with Mist and Fog 73 22.8 70 21.1 90 90 Calm 30.09 1019 5 8 0.00 0.03
6:30 am 06:30 Cloudy with Mist and Fog 73 22.8 70 21.1 90 90 Calm 30.09 1019 5 8 0.00 0.03
6:44 am 06:44 Cloudy with Mist and Fog 73 22.8 70 21.1 90 90 Calm 30.12 1020 5 8 0.00 0.03
6:53 am 06:53 Cloudy with Mist and Fog 73 22.8 70 21.1 90 90 Calm 30.11 1020 5 8 0.00 0.03
7:53 am 07:53 Cloudy with Mist and Fog 73 22.8 70 21.1 90 90 ESE 3 6 30.12 1020 5 8 0.00 0.00
8:53 am 08:53 Cloudy with Mist and Fog 74 23.3 71 21.7 91 91 ESE 3 6 30.12 1020 6 10 0.00 0.00
9:44 am 09:44 Cloudy 75 23.9 70 21.1 84 84 SE 5 7 30.12 1020 8 13 0.00 0.00
9:53 am 09:53 Cloudy 75 23.9 70 21.1 84 84 ESE 3 6 30.12 1020 9 14 0.00 0.00
10:23 am 10:23 Cloudy 76 24.4 70 21.1 82 82 E 5 7 30.12 1020 8 13 0.00 0.00
10:53 am 10:53 Cloudy with Haze 76 24.4 70 21.1 82 82 Calm 30.11 1020 6 10 0.00 0.00
11:53 am 11:53 Cloudy with Light Rain 75 23.9 71 21.7 88 88 N 7 11 30.11 1020 4 6 0.00 0.03
12:03 pm 12:03 Cloudy with Rain 75 23.9 71 21.7 88 88 NW 6 9 30.12 1020 3 4 0.00 0.03
12:13 pm 12:13 Cloudy with Rain 75 23.9 71 21.7 88 88 WNW 6 9 30.12 1020 2 3 0.00 0.00
12:19 pm 12:19 Cloudy with Light Rain 75 23.9 71 21.7 88 88 NW 5 7 30.12 1020 3 5 0.00 0.00
12:40 pm 12:40 Cloudy with Haze 77 25 72 22.2 85 85 NNE 3 6 30.09 1019 6 10 0.00 0.00
12:53 pm 12:53 Cloudy 78 25.6 71 21.7 79 79 NNE 3 6 30.11 1020 8 13 0.00 0.00
1:53 pm 13:53 Sunny 80 26.7 71 21.7 74 74 ENE 3 6 30.09 1019 10 16 0.00 0.00
2:48 pm 14:48 Mostly Cloudy 81 27 72 22 74 74 SE 3 6 30.09 1019 10 16 0.00 0.00
2:53 pm 14:53 Cloudy 81 27.2 70 21.1 69 69 Calm 30.08 1019 10 16 0.00 0.00
3:53 pm 15:53 Cloudy 80 26.7 71 21.7 74 74 S 8 13 30.06 1018 10 16 0.00 0.00
4:01 pm 16:01 Cloudy 81 27.2 72 22.2 74 74 S 6 9 30.06 1018 10 16 0.00 0.00
4:53 pm 16:53 Partly Cloudy 81 27.2 71 21.7 72 72 S 7 11 30.04 1017 10 16 0.00 0.00
5:35 pm 17:35 Mostly Cloudy 81 27.2 72 22.2 74 74 SSW 7 11 30.03 1017 10 16 0.00 0.00
5:46 pm 17:46 Partly Cloudy 80 26.7 71 21.7 74 74 SSW 8 13 30.03 1017 10 16 0.00 0.00
5:53 pm 17:53 Mostly Sunny 80 26.7 71 21.7 74 74 SSW 8 13 30.02 1017 10 16 0.00 0.00
6:24 pm 18:24 Mostly Cloudy 80 26.7 71 21.7 74 74 WSW 9 15 30.00 1016 10 16 0.00 0.00
6:32 pm 18:32 Partly Cloudy 81 27.2 71 21.7 72 72 WSW 7 11 30.00 1016 10 16 0.00 0.00
6:53 pm 18:53 Sunny 79 26.1 71 21.7 77 77 SW 6 9 30.01 1016 10 16 0.00 0.00
7:53 pm 19:53 Sunny 77 25 71 21.7 82 82 SW 6 9 30.02 1017 10 16 0.00 0.00
8:53 pm 20:53 Clear 75 23.9 70 21.1 84 84 SSW 6 9 30.02 1017 10 16 0.00 0.00
9:53 pm 21:53 Clear 74 23.3 70 21.1 88 88 SSW 7 11 30.03 1017 10 16 0.00 0.00
10:53 pm 22:53 Clear 72 22.2 69 20.6 91 91 SW 5 7 30.03 1017 10 16 0.00 0.00
11:53 pm 23:53 Clear 72 22.2 69 20.6 91 91 SW 5 7 30.03 1017 10 16 0.00 0.00

Powered by AerisWeather